Location: Gallinara
(44.0333°N, 8.2333°E)
Time: 16:52:24
(UTC+00:00)

Gbstr 26 Del rocket - Pass Details

Date: 25 September 2020
Orbit: 493 x 1264 km, 51.8° (Epoch: 30 October)

Event Time Altitude Azimuth Distance (km) Brightness Sun altitude
Exits shadow 02:03:40 74° 333° (NNW) 1,286 4.4 -33.5°
Maximum altitude 02:04:22 81° 30° (NNE) 1,254 4.4 -33.4°
Drops below altitude 10° 02:11:58 10° 117° (ESE) 3,023 6.8 -32.3°
Sets 02:14:33 0° 119° (ESE) 3,893 7.5 -32.0°
